CDT,Max TemperatureF,Mean TemperatureF,Min TemperatureF,Max Dew PointF,MeanDew PointF,Min DewpointF,Max Humidity, Mean Humidity, Min Humidity, Max Sea Level PressureIn, Mean Sea Level PressureIn, Min Sea Level PressureIn, Max VisibilityMiles, Mean VisibilityMiles, Min VisibilityMiles, Max Wind SpeedMPH, Mean Wind SpeedMPH, Max Gust SpeedMPH,PrecipitationIn, CloudCover, Events, WindDirDegrees
2012-10-1,69,52,36,50,41,33,93,81,52,29.96,29.91,29.86,10,8,1,9,1,,0.00,1,,340
2012-10-2,68,48,28,43,34,26,100,76,30,30.02,29.96,29.88,10,6,0,10,1,,0.00,2,Fog,178
2012-10-3,75,53,33,47,39,31,93,65,27,29.97,29.94,29.90,10,10,10,7,1,,0.00,0,,164
2012-10-4,57,48,39,45,36,26,72,60,48,30.03,29.89,29.77,10,10,9,17,7,33,0.00,5,,225
2012-10-5,41,38,35,31,27,24,85,65,51,30.08,30.01,29.97,10,10,5,15,9,30,0.00,8,Snow,260
2012-10-6,42,37,32,31,27,20,89,73,43,30.25,30.17,30.05,10,10,6,7,4,,0.00,8,Rain-Snow,313
2012-10-7,50,34,19,26,20,17,89,57,29,30.22,30.08,29.93,10,10,10,10,3,21,0.00,0,,220
2012-10-8,52,42,33,42,30,19,80,61,45,29.91,29.75,29.62,10,10,4,14,6,22,0.07,4,Rain,188
2012-10-9,48,40,35,38,32,26,93,75,46,29.92,29.78,29.72,10,10,6,13,3,25,0.04,6,Rain,268
2012-10-10,46,39,32,31,26,21,82,62,39,30.05,30.00,29.89,10,10,10,10,4,18,0.00,7,,258
2012-10-11,44,34,21,34,29,18,93,74,45,30.40,30.07,29.87,10,10,10,8,4,24,0.00,5,Rain,355
2012-10-12,48,31,16,26,17,10,85,56,29,30.51,30.36,30.12,10,10,10,12,2,18,0.00,1,,181
2012-10-13,48,42,39,45,39,20,93,86,40,30.09,29.86,29.72,10,6,2,14,6,21,0.00,8,Rain,163
2012-10-14,48,38,27,45,37,25,93,82,62,29.88,29.79,29.73,10,9,5,8,4,18,0.00,6,,24
2012-10-15,57,39,21,37,25,19,100,80,40,29.98,29.89,29.80,10,5,0,6,0,,0.00,5,Fog,189
2012-10-16,66,54,44,47,43,36,89,67,50,29.78,29.58,29.44,10,10,9,13,6,18,0.01,5,Rain,159
2012-10-17,60,52,44,52,46,41,90,77,63,29.42,29.27,29.18,10,10,6,14,5,22,0.01,6,Rain,165
2012-10-18,48,46,44,45,43,41,96,89,74,29.42,29.25,29.16,10,9,3,6,1,,0.17,8,Rain,193
2012-10-19,51,39,28,43,39,25,100,85,59,29.75,29.58,29.42,10,9,5,7,1,,0.09,7,Rain,59
2012-10-20,52,38,26,40,32,23,100,89,63,29.88,29.80,29.72,10,5,0,5,1,,0.00,4,Fog,91
2012-10-21,63,45,27,43,35,25,93,75,44,29.96,29.92,29.87,10,10,6,13,2,17,0.00,2,,155
2012-10-22,55,50,45,45,43,41,86,77,64,30.05,30.00,29.95,10,10,10,10,4,18,0.00,5,,35
2012-10-23,57,52,48,56,50,43,96,89,76,29.96,29.83,29.76,10,6,2,10,6,,0.03,8,Rain,117
2012-10-24,60,56,52,58,55,49,100,94,88,29.87,29.79,29.69,10,3,0,9,2,22,0.37,8,Fog-Rain-Thunderstorm,8
2012-10-25,50,42,33,49,38,26,97,90,72,30.06,29.74,29.62,10,5,2,9,5,17,1.00,8,Rain,307
2012-10-26,37,34,30,27,22,19,82,61,48,30.34,30.26,30.08,10,10,10,8,5,22,0.00,7,,250
2012-10-27,42,31,21,23,19,16,89,66,36,30.39,30.35,30.33,10,10,10,9,2,,0.00,3,,245
2012-10-28,44,32,19,27,20,15,92,67,38,30.41,30.38,30.35,10,10,10,9,2,17,0.00,4,,203
2012-10-29,50,33,18,27,20,14,88,65,32,30.42,30.37,30.31,10,10,10,6,1,,0.00,1,,142
2012-10-30,44,30,19,31,21,14,93,73,38,30.32,30.20,30.07,10,10,6,12,3,23,0.00,2,,27
2012-10-31,48,30,14,24,14,3,92,59,16,30.07,30.01,29.94,10,10,10,7,1,,0.00,2,,280